Miscellaneous Local Product
Issued by NWS North Platte, NE

Home | Current Version | Previous Version | Text Only | Print | Product List | Glossary On
Versions: 1 2 3 4 5 6 7 8 9 10 11 12 13 14 15 16 17 18 19 20 21 22 23 24 25 26 27 28 29 30 31 32 33 34 35 36 37 38 39 40 41 42 43 44 45 46 47 48 49 50
000
AXUS43 KLBF 010610
MISLBF


WESTERN AND NORTH CENTRAL NEBRASKA HOURLY WEATHER ROUNDUP
NATIONAL WEATHER SERVICE NORTH PLATTE NE
100 AM CDT MON MAY 01 2017

NOTE: "FAIR" INDICATES FEW OR NO CLOUDS BELOW 12,000 FEET WITH NO
SIGNIFICANT WEATHER AND/OR OBSTRUCTIONS TO VISIBILITY.

NOTE: STATIONS NOT REPORTING VARIABLES SUCH AS SKY/WEATHER OR
PRESSURE ARE PROVIDED BY RAWS AND APRS NETWORKS AND ARE NOT UNDER
NATIONAL WEATHER SERVICE QUALITY CONTROL.

...OBSERVATIONS IN AND NEAR THE EASTERN PANHANDLE OF NEBRASKA...

CITY           SKY/WX    TMP DP  RH WIND       PRES   REMARKS
PINE RIDGE     CLOUDY    33  27  78 CALM      29.82F
CHADRON        CLOUDY    34  30  85 SW6       29.85R WCI  29
ALLIANCE       CLOUDY    36  26  67 NW8       29.81F WCI  30
SIDNEY         CLOUDY    38  24  57 NW12      29.84R WCI  30
CRESCENT LAKE    N/A     40  26  57 N10         N/A  WCI  33
$$

...OBSERVATIONS IN NORTHERN NEBRASKA AND FAR SOUTHERN SOUTH DAKOTA...

CITY           SKY/WX    TMP DP  RH WIND       PRES   REMARKS
WINNER         FAIR      39  26  59 NW6       29.73F WCI  35
VALENTINE      CLOUDY    44  17  33 N12       29.74F
THEDFORD       CLOUDY    42  22  44 N14       29.72S
AINSWORTH      CLOUDY    35  30  81 NE5       29.71S WCI  31
O`NEILL        FLURRIES  34  33  94 N14       29.64S WCI  25
ORD            LGT SNOW  33  31  92 N15       29.63F FOG     WCI  23
BROKEN BOW     CLOUDY    35  32  88 N18       29.66R WCI  24
VALENTINE NWR    N/A     41  20  43 N9          N/A
HALSEY           N/A     42  20  40 NW10G17     N/A
BUTTE            N/A     37  35  93 N17G28      N/A  WCI  27
CHAMBERS         N/A     33  32  98 CALM        N/A
EWING            N/A     32  32  99 CALM        N/A
$$

...OBSERVATIONS IN SOUTHWEST NEBRASKA AND FAR NORTHEAST COLORADO...

CITY           SKY/WX    TMP DP  RH WIND       PRES   REMARKS
HOLYOKE        FAIR      41  27  56 NW14G20   29.79S
IMPERIAL       CLOUDY    40  24  53 N15       29.76S WCI  32
OGALLALA       CLOUDY    43  26  51 N20       29.77R
NORTH PLATTE   CLOUDY    44  21  40 NW12      29.71S
MCCOOK         CLOUDY    36  31  82 NW10      29.71F WCI  28
LEXINGTON      CLOUDY    34  32  92 NW9       29.68F WCI  27
STAPLETON        N/A     41  23  48 CALM        N/A
GOTHENBURG       N/A     36  30  78 NW7         N/A  WCI  30
CALLAWAY         N/A     34  31  90 N9          N/A  WCI  27
$$

...OBSERVATIONS IN CENTRAL LINCOLN COUNTY AREA...

CITY           SKY/WX    TMP DP  RH WIND       PRES   REMARKS
N.P. AIRPORT   CLOUDY    44  21  40 NW12      29.71S
N.P. DOWNTOWN    N/A     42  24  48 MISG        N/A
N.P. SOUTHEAST   N/A     43  23  44 N7G14       N/A
N.P. HILLCREST   N/A     43  23  44 N14         N/A
$$

...SOME OBSERVATIONS FROM AROUND THE REGION...

CITY           SKY/WX    TMP DP  RH WIND       PRES   REMARKS
DENVER         CLOUDY    47  25  42 N8        29.89S
LIMON          CLOUDY    33  27  78 NW13      29.88S WCI  24
ASPEN          CLOUDY    42  22  44 MISG      30.09R
LARAMIE        CLOUDY    39  28  64 NW21      29.96S WCI  29
CASPER         PTCLDY    36  31  82 W8        29.93S WCI  30
CHEYENNE       CLEAR     41  23  48 N12         N/A
SCOTTSBLUFF    CLEAR     37  27  67 W8        29.86R WCI  31
GRAND ISLAND   LGT SNOW  33  33 100 N21G26    29.59S FOG     WCI  21
OMAHA          LGT RAIN  41  38  89 N12       29.44F FOG
SIOUX FALLS    CLOUDY    34  50 100 N21G30    29.58S FOG     WCI  22
PIERRE         MOCLDY    38  21  50 N8        29.76F WCI  32
RAPID CITY     CLOUDY    46  27  47 E3        29.83F
BISMARCK       PTCLDY    42  29  59 CALM      29.83F
KANSAS CITY    DRIZZLE   44  42  93 S5        29.42F
HILL CITY      CLOUDY    36  34  92 NW14G23   29.71F WCI  27
WICHITA        CLOUDY    40  35  83 NW18G29   29.59R WCI  31
DODGE CITY     PTCLDY    35  33  92 NW18      29.75R WCI  24
OKLAHOMA CITY  CLOUDY    43  35  73 W21G31    29.78R
DALLAS         CLEAR     55  34  45 W10       29.92S
AMARILLO       CLEAR     36  31  82 W7        29.90R WCI  30
$$




USA.gov is the U.S. government's official web portal to all federal, state and local government web resources and services.